When you browse on this site, cookies collect data to enhance your experience and personalize the content and advertising you see.
Visit our Privacy Policy to learn more. By continuing to use the site, you agree to this use of cookies and data.
  • en Belgique
  • Liste des pays
  • À 7 jours
  • Température de l'eau
  • Carte satellitaire
  • Carte météo
  • Widgets météo
  • user-avatar
    Se connecter

    Météo par heure à Beveren

    Ce jour, 20 Janvier, Dimanche

    Heure Température Précipitation Vent Pression Humidité
    00:00 -2°C° 0 mm 3 m/s 759 mmHg 68%
    01:00 -2°C° 0 mm 3 m/s 759 mmHg 68%
    02:00 -2°C° 0 mm 2 m/s 759 mmHg 68%
    03:00 -2°C° 0 mm 2 m/s 759 mmHg 67%
    04:00 -2°C° 0 mm 2 m/s 760 mmHg 67%
    05:00 -2°C° 0 mm 2 m/s 760 mmHg 66%
    06:00 -2°C° 0 mm 2 m/s 760 mmHg 66%
    07:00 -2°C° 0 mm 2 m/s 760 mmHg 64%
    08:00 -2°C° 0 mm 3 m/s 761 mmHg 62%
    09:00 -2°C° 0 mm 3 m/s 761 mmHg 61%
    10:00 -1°C° 0 mm 3 m/s 761 mmHg 57%
    11:00 0°C° 0 mm 3 m/s 762 mmHg 53%
    12:00 +1°C° 0 mm 3 m/s 762 mmHg 49%
    13:00 +1°C° 0 mm 3 m/s 762 mmHg 50%
    14:00 +1°C° 0 mm 3 m/s 762 mmHg 51%
    15:00 +2°C° 0 mm 2 m/s 763 mmHg 52%
    16:00 +1°C° 0 mm 2 m/s 763 mmHg 54%
    17:00 -1°C° 0 mm 2 m/s 764 mmHg 57%
    18:00 -1°C° 0 mm 2 m/s 764 mmHg 60%
    19:00 -2°C° 0 mm 2 m/s 765 mmHg 59%
    20:00 -2°C° 0 mm 2 m/s 765 mmHg 59%
    21:00 -2°C° 0 mm 2 m/s 766 mmHg 58%
    22:00 -2°C° 0 mm 2 m/s 766 mmHg 57%
    23:00 0°C° 0 mm 1 m/s 766 mmHg 56%

    Demain, 21 Janvier, Lundi

    Heure Température Précipitation Vent Pression Humidité
    00:00 0°C° 0 mm 1 m/s 767 mmHg 55%
    01:00 0°C° 0 mm 1 m/s 767 mmHg 54%
    02:00 0°C° 0 mm 1 m/s 767 mmHg 53%
    03:00 0°C° 0 mm 1 m/s 767 mmHg 52%
    04:00 -1°C° 0 mm 0 m/s 767 mmHg 52%
    05:00 -1°C° 0 mm 0 m/s 767 mmHg 51%
    06:00 -1°C° 0 mm 0 m/s 767 mmHg 50%
    07:00 -1°C° 0 mm 0 m/s 767 mmHg 49%
    08:00 -1°C° 0 mm 0 m/s 767 mmHg 47%
    09:00 0°C° 0 mm 0 m/s 767 mmHg 46%
    10:00 +2°C° 0 mm 1 m/s 767 mmHg 43%
    11:00 +3°C° 0 mm 1 m/s 767 mmHg 41%
    12:00 +3°C° 0 mm 1 m/s 767 mmHg 38%
    13:00 +3°C° 0 mm 1 m/s 766 mmHg 41%
    14:00 +3°C° 0 mm 1 m/s 766 mmHg 43%
    15:00 +3°C° 0 mm 1 m/s 765 mmHg 46%
    16:00 +1°C° 0 mm 2 m/s 765 mmHg 48%
    17:00 -1°C° 0 mm 2 m/s 765 mmHg 50%
    18:00 -2°C° 0 mm 2 m/s 764 mmHg 52%
    19:00 -2°C° 0 mm 2 m/s 764 mmHg 52%
    20:00 -2°C° 0 mm 3 m/s 763 mmHg 53%
    21:00 -2°C° 0 mm 3 m/s 763 mmHg 54%
    22:00 -3°C° 0 mm 4 m/s 762 mmHg 55%
    23:00 -3°C° 0 mm 4 m/s 761 mmHg 55%

    Après-demain, 22 Janvier, Mardi

    Heure Température Précipitation Vent Pression Humidité
    00:00 -4°C° 0 mm 5 m/s 760 mmHg 55%
    01:00 -3°C° 0 mm 6 m/s 759 mmHg 54%
    02:00 -3°C° 0 mm 6 m/s 758 mmHg 53%
    03:00 -3°C° 0 mm 7 m/s 756 mmHg 52%
    04:00 -3°C° 0.1 mm 7 m/s 755 mmHg 55%
    05:00 -2°C° 0.1 mm 7 m/s 753 mmHg 57%
    06:00 -2°C° 0.1 mm 8 m/s 752 mmHg 60%
    07:00 -2°C° 0.7 mm 8 m/s 752 mmHg 69%
    08:00 -4°C° 0.7 mm 8 m/s 751 mmHg 79%
    09:00 -4°C° 0.7 mm 8 m/s 750 mmHg 89%
    10:00 -2°C° 0.8 mm 6 m/s 750 mmHg 90%
    11:00 -1°C° 0.8 mm 5 m/s 749 mmHg 91%
    12:00 -1°C° 0.8 mm 4 m/s 749 mmHg 92%
    13:00 0°C° 0.2 mm 3 m/s 748 mmHg 92%
    14:00 0°C° 0.2 mm 3 m/s 748 mmHg 92%
    15:00 +1°C° 0.2 mm 2 m/s 747 mmHg 92%
    16:00 +1°C° 0 mm 2 m/s 747 mmHg 91%
    17:00 +1°C° 0 mm 2 m/s 748 mmHg 90%
    18:00 +1°C° 0 mm 2 m/s 748 mmHg 89%
    19:00 -1°C° 0 mm 2 m/s 748 mmHg 88%
    20:00 +1°C° 0 mm 1 m/s 748 mmHg 87%
    21:00 +1°C° 0 mm 1 m/s 748 mmHg 86%
    22:00 +1°C° 0 mm 1 m/s 748 mmHg 87%
    23:00 +1°C° 0 mm 1 m/s 748 mmHg 87%

    23 Janvier, Mercredi

    Heure Température Précipitation Vent Pression Humidité
    00:00 -1°C° 0 mm 2 m/s 748 mmHg 88%
    01:00 0°C° 0 mm 1 m/s 748 mmHg 88%
    02:00 0°C° 0 mm 1 m/s 748 mmHg 88%
    03:00 0°C° 0 mm 1 m/s 748 mmHg 88%
    04:00 0°C° 0 mm 1 m/s 748 mmHg 88%
    05:00 0°C° 0 mm 1 m/s 749 mmHg 88%
    06:00 0°C° 0 mm 1 m/s 749 mmHg 88%
    07:00 -2°C° 0 mm 2 m/s 749 mmHg 87%
    08:00 -2°C° 0 mm 2 m/s 750 mmHg 86%
    09:00 -1°C° 0 mm 2 m/s 750 mmHg 85%
    10:00 -1°C° 0 mm 2 m/s 750 mmHg 85%
    11:00 +2°C° 0 mm 1 m/s 751 mmHg 85%
    12:00 +3°C° 0 mm 1 m/s 751 mmHg 84%
    13:00 +3°C° 0 mm 1 m/s 751 mmHg 84%
    14:00 +3°C° 0 mm 1 m/s 751 mmHg 84%
    15:00 +3°C° 0 mm 1 m/s 751 mmHg 84%
    16:00 +2°C° 0 mm 1 m/s 752 mmHg 85%
    17:00 +2°C° 0 mm 1 m/s 753 mmHg 86%
    18:00 +1°C° 0 mm 1 m/s 753 mmHg 87%
    19:00 +1°C° 0 mm 1 m/s 754 mmHg 87%
    20:00 +1°C° 0 mm 1 m/s 754 mmHg 87%
    21:00 +1°C° 0 mm 1 m/s 755 mmHg 88%
    22:00 +1°C° 0 mm 1 m/s 755 mmHg 88%
    23:00 +1°C° 0 mm 1 m/s 755 mmHg 88%

    24 Janvier, Jeudi

    Heure Température Précipitation Vent Pression Humidité
    00:00 +1°C° 0 mm 1 m/s 756 mmHg 89%
    01:00 +1°C° 0 mm 1 m/s 756 mmHg 88%
    02:00 +1°C° 0 mm 1 m/s 756 mmHg 88%
    03:00 +1°C° 0 mm 1 m/s 757 mmHg 88%
    04:00 +1°C° 0 mm 1 m/s 757 mmHg 87%
    05:00 +1°C° 0 mm 1 m/s 757 mmHg 86%
    06:00 +1°C° 0 mm 1 m/s 758 mmHg 85%
    07:00 +2°C° 0 mm 1 m/s 758 mmHg 84%
    08:00 +2°C° 0 mm 1 m/s 759 mmHg 83%
    09:00 +1°C° 0 mm 0 m/s 759 mmHg 82%
    10:00 +1°C° 0 mm 0 m/s 760 mmHg 82%
    11:00 +2°C° 0 mm 0 m/s 760 mmHg 81%
    12:00 +3°C° 0 mm 0 m/s 760 mmHg 81%
    13:00 +3°C° 0 mm 0 m/s 760 mmHg 83%
    14:00 +2°C° 0 mm 0 m/s 761 mmHg 84%
    15:00 +2°C° 0 mm 0 m/s 761 mmHg 86%
    16:00 +1°C° 0 mm 0 m/s 761 mmHg 87%
    17:00 +2°C° 0 mm 1 m/s 762 mmHg 88%
    18:00 +1°C° 0 mm 1 m/s 763 mmHg 89%
    19:00 +1°C° 0 mm 1 m/s 763 mmHg 89%
    20:00 0°C° 0 mm 1 m/s 764 mmHg 89%
    21:00 0°C° 0 mm 1 m/s 765 mmHg 89%
    22:00 0°C° 0 mm 1 m/s 765 mmHg 89%
    23:00 0°C° 0 mm 1 m/s 765 mmHg 89%

    25 Janvier, Vendredi

    Heure Température Précipitation Vent Pression Humidité
    00:00 -1°C° 0 mm 0 m/s 765 mmHg 89%
    01:00 -1°C° 0 mm 0 m/s 766 mmHg 88%
    02:00 -1°C° 0 mm 0 m/s 766 mmHg 88%
    03:00 -1°C° 0 mm 0 m/s 766 mmHg 87%
    04:00 -1°C° 0 mm 0 m/s 766 mmHg 87%
    05:00 -1°C° 0 mm 0 m/s 767 mmHg 86%
    06:00 -1°C° 0 mm 0 m/s 767 mmHg 86%
    07:00 0°C° 0 mm 1 m/s 767 mmHg 85%
    08:00 0°C° 0 mm 1 m/s 767 mmHg 84%
    09:00 +1°C° 0 mm 1 m/s 768 mmHg 83%
    10:00 +1°C° 0 mm 1 m/s 768 mmHg 81%
    11:00 +1°C° 0 mm 2 m/s 768 mmHg 79%
    12:00 +2°C° 0 mm 2 m/s 768 mmHg 78%
    13:00 +2°C° 0 mm 2 m/s 768 mmHg 80%
    14:00 +2°C° 0 mm 2 m/s 767 mmHg 82%
    15:00 +2°C° 0 mm 2 m/s 767 mmHg 85%
    16:00 +1°C° 0 mm 2 m/s 767 mmHg 86%
    17:00 +1°C° 0 mm 2 m/s 767 mmHg 87%
    18:00 0°C° 0 mm 3 m/s 767 mmHg 89%
    19:00 0°C° 0 mm 3 m/s 767 mmHg 88%
    20:00 0°C° 0 mm 3 m/s 767 mmHg 88%
    21:00 -1°C° 0 mm 4 m/s 767 mmHg 88%
    22:00 -1°C° 0 mm 4 m/s 767 mmHg 88%
    23:00 -1°C° 0 mm 4 m/s 767 mmHg 89%
    Voir plus